Weather History for Bloomington, IL

Change the Weather History Date:

Tuesday, December 4, 2012

  Actual Average Record
Temperature  
Mean Temperature 50 °F -  
Max Temperature 59 °F 33 °F 69 °F (1998)
Min Temperature 39 °F 15 °F 6 °F (2006)
Degree Days  
Heating Degree Days 15    
Moisture  
Dew Point 43 °F    
Average Humidity 78    
Maximum Humidity 100    
Minimum Humidity 47    
Precipitation  
Precipitation 0.74 in - - ()
Sea Level Pressure  
Sea Level Pressure 30.09 in    
Wind  
Wind Speed 10 mph (NW)    
Max Wind Speed 15 mph    
Max Gust Speed -    
Visibility 7 miles    
Events Rain    
Averages and records for this station are not official NWS values.
T = Trace of Precipitation, MM = Missing Value Source: NWS Daily Summary

Daily Weather History Graph

Daily Weather History Graph

Search for Another Location

Airport:

Trip Planner

Search our weather history database for the weather conditions in past years. The results will help you decide how hot, cold, wet, or windy it might be!

Date:

Astronomy

Dec. 04, 2012 Rise Set
Actual Time 7:03 AM CST 4:28 PM CST
Civil Twilight 6:32 AM CST 4:59 PM CST
Nautical Twilight 5:58 AM CST 5:33 PM CST
Astronomical Twilight 5:25 AM CST 6:06 PM CST
Moon 10:17 PM CST (12/4) 10:56 AM CST (12/4)
Length of Visible Light 10h 26m
Length of Day
9h 25m
Waning Gibbous, 69% of the Moon is Illuminated
Dec 4
Waning Gibbous
Dec 6
Last Quarter
Dec 13
New
Dec 19
First Quarter
Dec 28
Full

Hourly Weather History & Observations

Time (CST) Temp. Windchill Dew Point Humidity Pressure Visibility Wind Dir Wind Speed Gust Speed Precip Events Conditions
12:10 AM 59.0 °F - 57.2 °F 94% 29.95 in 2.5 mi West 12.7 mph - 0.02 in Rain Rain
12:20 AM 57.2 °F - 55.4 °F 94% 29.96 in 1.8 mi NW 15.0 mph - 0.04 in Rain Light Rain
12:27 AM 57.2 °F - 55.4 °F 94% 29.96 in 2.5 mi NW 9.2 mph - 0.04 in Rain Light Rain
12:34 AM 57.2 °F - 55.4 °F 94% 29.96 in 2.5 mi NW 8.1 mph - 0.04 in Rain Light Rain
12:44 AM 55.4 °F - 55.4 °F 100% 29.96 in 2.5 mi NNW 8.1 mph - 0.05 in Rain Light Rain
12:56 AM 54.9 °F - 52.0 °F 90% 29.94 in 4.0 mi NNW 8.1 mph - 0.05 in Rain Light Rain
1:10 AM 53.6 °F - 50.0 °F 88% 29.96 in 9.0 mi NNW 10.4 mph - 0.00 in   Overcast
1:43 AM 51.8 °F - 50.0 °F 94% 29.96 in 5.0 mi NNW 10.4 mph - 0.02 in Rain Light Rain
1:56 AM 50.9 °F - 47.8 °F 89% 29.96 in 5.0 mi NNW 8.1 mph - 0.02 in Rain Light Rain
2:08 AM 51.8 °F - 48.2 °F 88% 29.98 in 1.8 mi NNW 9.2 mph - 0.08 in Rain Heavy Rain
2:12 AM 51.8 °F - 48.2 °F 88% 29.98 in 1.2 mi NNW 8.1 mph - 0.10 in Rain Heavy Rain
2:16 AM 50.0 °F - 48.2 °F 94% 29.99 in 1.5 mi NNW 8.1 mph - 0.13 in Rain Heavy Rain
2:29 AM 50.0 °F - 48.2 °F 94% 29.99 in 2.0 mi NNW 9.2 mph - 0.18 in Rain Heavy Rain
2:39 AM 50.0 °F - 48.2 °F 94% 30.00 in 2.5 mi NNW 8.1 mph - 0.21 in Rain Rain
2:56 AM 50.0 °F - 47.8 °F 92% 30.00 in 1.5 mi NNW 10.4 mph - 0.34 in Rain Heavy Rain
3:15 AM 48.2 °F - 46.4 °F 93% 30.02 in 2.0 mi NNW 10.4 mph - 0.10 in Rain Heavy Rain
3:56 AM 48.9 °F - 46.9 °F 93% 30.01 in 2.5 mi NNW 12.7 mph - 0.24 in Rain Rain
4:18 AM 48.2 °F - 46.4 °F 93% 30.02 in 3.0 mi NNW 15.0 mph - 0.06 in Rain Rain
4:37 AM 48.2 °F - 46.4 °F 93% 30.03 in 7.0 mi NNW 12.7 mph - 0.07 in Rain Light Rain
4:56 AM 47.8 °F - 43.9 °F 86% 30.03 in 6.0 mi North 13.8 mph - 0.08 in Rain Light Rain
5:56 AM 46.9 °F - 41.9 °F 83% 30.05 in 10.0 mi North 12.7 mph - 0.00 in   Mostly Cloudy
6:56 AM 46.9 °F - 41.0 °F 80% 30.09 in 10.0 mi North 10.4 mph - 0.01 in   Scattered Clouds
7:56 AM 45.9 °F 41.7 °F 41.0 °F 83% 30.12 in 10.0 mi NNW 8.1 mph - N/A   Clear
8:56 AM 46.4 °F 41.9 °F 41.0 °F 81% 30.14 in 10.0 mi North 9.2 mph - N/A   Mostly Cloudy
9:56 AM 50.0 °F - 39.9 °F 68% 30.16 in 10.0 mi NNW 9.2 mph - N/A   Clear
10:56 AM 50.9 °F - 38.8 °F 63% 30.16 in 10.0 mi NNW 9.2 mph - N/A   Clear
11:56 AM 52.9 °F - 38.8 °F 59% 30.15 in 10.0 mi NNW 11.5 mph - N/A   Clear
12:56 PM 52.9 °F - 37.9 °F 57% 30.15 in 10.0 mi NNW 10.4 mph - N/A   Clear
1:56 PM 54.9 °F - 36.9 °F 51% 30.15 in 10.0 mi NW 8.1 mph - N/A   Clear
2:56 PM 54.0 °F - 34.0 °F 47% 30.17 in 10.0 mi NW 11.5 mph - N/A   Clear
3:56 PM 52.9 °F - 32.9 °F 47% 30.19 in 10.0 mi WNW 8.1 mph - N/A   Clear
4:56 PM 48.9 °F - 34.9 °F 58% 30.22 in 10.0 mi SW 4.6 mph - N/A   Clear
5:56 PM 47.8 °F - 34.9 °F 61% 30.23 in 10.0 mi West 6.9 mph - N/A   Clear
6:56 PM 45.9 °F 42.3 °F 32.9 °F 61% 30.24 in 10.0 mi West 6.9 mph - N/A   Clear
7:56 PM 43.9 °F 38.8 °F 32.0 °F 63% 30.26 in 10.0 mi WNW 9.2 mph - N/A   Clear
8:56 PM 43.0 °F 38.2 °F 32.0 °F 65% 30.27 in 10.0 mi WNW 8.1 mph - N/A   Clear
9:56 PM 43.0 °F 39.5 °F 29.1 °F 58% 30.29 in 10.0 mi WNW 5.8 mph - N/A   Clear
10:56 PM 41.9 °F 37.5 °F 30.0 °F 63% 30.30 in 10.0 mi NW 6.9 mph - N/A   Clear
11:56 PM 39.9 °F 32.9 °F 30.0 °F 68% 30.32 in 10.0 mi NNW 11.5 mph - N/A   Clear